Flag for Norway Weather past 2 weeks in Fetsund, Norway

Now
61 °F

Refreshingly cool.


Feels Like: 61 °F
Forecast: 40 / 63 °F
Wind: 2 mph from South

Location: Oslo-Blindern

Current Time: Apr 21, 2015 at 3:40:14 PM

Latest Report: Apr 21, 2015 at 3:00 PM


Visibility: N/A

Pressure: 30.20 "Hg

Humidity: 31%

Dew point: 30 °F

Location of FetsundLocation

Historic Weather in Fetsund — Graph

°F

Fetsund temperature yesterday

Maximum temperature yesterday: 72 °F (at 3:00 PM)
Minimum temperature yesterday: 41 °F (at 6:00 AM)
Average temperature yesterday: 58 °F

Past Weeks' High & Low Weather Summary

 TemperatureHumidityPressure
High72 °F (Apr 20, 3:00 PM)98% (Apr 11, 6:00 AM)30.44 "Hg (Apr 11, 6:00 AM)
Low32 °F (Apr 14, 4:00 AM)19% (Apr 20, 8:00 PM)29.44 "Hg (Apr 15, 4:00 PM)
Average47 °F55%30.02 "Hg
* Reported Apr 6 2:00 PM — Apr 21 2:00 PM, Fetsund, Weather by CustomWeather, © 2015

Note: Actual official high and low records may vary slightly from our data, if they occured in-between our weather recording intervals... More about our weather records

Advertising

Fetsund weather history for previous 24 hours

 ConditionsComfort  
Time TempWeatherWind HumidityBarometerVisibility
2:00 PM
Tue, Apr 21
60 °FSunny.2 mph33%30.23 "Hg47 mi
1:00 PM57 °FRefreshingly cool.2 mph35%30.26 "HgN/A
12:00 PM56 °FRefreshingly cool.3 mph34%30.28 "HgN/A
11:00 AM53 °FSunny.2 mph40%30.30 "Hg47 mi
10:00 AM51 °FCool.2 mph40%30.32 "HgN/A
9:00 AM49 °FCool.3 mph40%30.33 "HgN/A
8:00 AM49 °FPassing clouds.2 mph40%30.34 "Hg47 mi
6:00 AM44 °FQuite cool.3 mph47%30.30 "HgN/A
4:00 AM44 °FQuite cool.2 mph48%30.28 "HgN/A
3:00 AM49 °FCool.5 mph39%30.27 "HgN/A
2:00 AM52 °FPassing clouds.5 mph33%30.27 "Hg43 mi
1:00 AM54 °FCool.5 mph31%30.26 "HgN/A
12:00 AM54 °FCool.2 mph32%30.25 "HgN/A
11:00 PM
Mon, Apr 20
57 °FPassing clouds.5 mph29%30.23 "Hg43 mi
10:00 PM62 °FRefreshingly cool.6 mph24%30.23 "HgN/A
9:00 PM66 °FMild.7 mph20%30.21 "HgN/A
8:00 PM68 °FPartly sunny.6 mph19%30.19 "Hg40 mi
7:00 PM67 °FMild.1 mph25%30.18 "HgN/A
6:00 PM67 °FMild.2 mph26%30.20 "HgN/A
5:00 PM69 °FOvercast.3 mph28%30.21 "Hg40 mi
4:00 PM72 °FMild.3 mph20%30.22 "HgN/A
3:00 PM72 °FMild.3 mph21%30.25 "HgN/A
Weather by CustomWeather, © 2015

See weather overviewHow to use our weather pages